EW5295 Weather Reports


time (UTC)temp
F
wind
direction
speed
knots
gust
knots
rain 1hr
in
rain 24hr
in
rain mn
in
humidity
%
barometer
mb
20260906223053 60 166 0.0 0.9 0.00 0.13 0.00 93 1016.4
20260906221547 60 156 0.0 2.6 0.00 0.13 0.00 93 1016.5
20260906220029 60 184 0.0 0.9 0.00 0.13 0.00 93 1016.3
20260906214526 59 208 0.0 0.9 0.00 0.13 0.00 93 1016.2
20260906213025 59 286 0.0 0.9 0.00 0.13 0.00 93 1016.3
20260906211523 59 160 0.0 0.0 0.00 0.13 0.13 94 1016.1
20260906210026 59 161 0.0 0.0 0.00 0.13 0.13 94 1016.1
20260906204524 59 161 0.0 0.0 0.00 0.13 0.13 95 1016.0
20260906203030 58 161 0.0 0.0 0.00 0.13 0.13 94 1016.0
20260906201527 58 161 0.0 0.0 0.01 0.13 0.13 94 1016.0
20260906200009 58 161 0.0 0.0 0.01 0.13 0.13 94 1016.0
20260906194508 58 161 0.0 0.0 0.02 0.13 0.13 94 1016.0
20260906193008 59 161 0.0 0.0 0.03 0.13 0.13 95 1015.8
20260906191509 58 161 0.0 0.0 0.03 0.12 0.12 95 1015.7
20260906190005 57 162 0.0 0.0 0.05 0.12 0.12 95 1015.7
20260906184505 57 162 0.0 0.0 0.05 0.11 0.11 95 1016.0
20260906183006 56 162 0.0 0.0 0.05 0.10 0.10 95 1016.0
20260906181505 56 162 0.0 0.0 0.05 0.09 0.09 95 1015.9
20260906180105 56 162 0.0 0.0 0.04 0.07 0.07 95 1015.9
20260906174605 56 162 0.0 0.0 0.04 0.06 0.06 95 1015.8
20260906173047 56 162 0.0 0.0 0.03 0.05 0.05 95 1015.7
20260906171604 56 162 0.0 0.0 0.03 0.04 0.04 95 1015.6
20260906170056 56 162 0.0 0.0 0.03 0.03 0.03 95 1015.6
20260906164543 56 162 0.0 0.0 0.02 0.02 0.02 95 1015.4
20260906163042 55 162 0.0 0.0 0.02 0.02 0.02 95 1015.3
20260906161559 55 162 0.0 0.0 0.01 0.01 0.01 95 1015.2
20260906160028 0 0.0 0.0 0.00 0.00 0.00 1015.2
20260906154527 0 0.0 0.0 0.00 0.00 0.00 1015.2
20260906153035 0 0.0 0.0 0.00 0.00 0.00 1015.3
20260906151521 0 0.0 0.0 0.00 0.00 0.00 1015.2
20260906150015 0 0.0 0.0 0.00 0.00 0.00 1015.0
20260906144515 0 0.0 0.0 0.00 0.00 0.00 1014.8
20260906143006 0 0.0 0.0 0.00 0.00 0.00 1014.8
20260906141501 0 0.0 0.0 0.00 0.00 0.00 1014.8
20260906140046 0 0.0 0.0 0.00 0.00 0.00 1014.6
20260906134541 0 0.0 0.0 0.00 0.00 0.00 1014.4
20260906133043 0 0.0 0.0 0.00 0.00 0.00 1014.2
20260906131543 0 0.0 0.0 0.00 0.00 0.00 1014.1
20260906130030 0 0.0 0.0 0.00 0.00 0.00 1014.1
20260906124524 0 0.0 0.0 0.00 0.00 0.00 1014.2
20260906123023 0 0.0 0.0 0.00 0.00 0.00 1014.2
20260906121531 0 0.0 0.0 0.00 0.00 0.00 1014.3
20260906120105 0 0.0 0.0 0.00 0.00 0.00 1014.3
20260906114558 0 0.0 0.0 0.00 0.00 0.00 1014.3
20260906113044 55 167 0.0 0.0 0.00 0.00 0.00 87 1014.4
20260906111547 56 165 0.0 0.0 0.00 0.00 0.00 87 1014.4
20260906110042 56 169 0.0 0.0 0.00 0.00 0.00 87 1014.3
20260906104541 57 169 0.0 0.0 0.00 0.00 0.00 87 1014.3
20260906103046 57 169 0.0 0.0 0.00 0.00 0.00 87 1014.3
20260906101540 57 170 0.0 0.0 0.00 0.01 0.00 87 1014.2
20260906100038 57 157 0.0 0.0 0.00 0.01 0.00 87 1014.2
20260906094544 56 156 0.0 0.0 0.00 0.01 0.00 87 1014.2
20260906093025 56 154 0.0 0.0 0.00 0.01 0.00 87 1014.2
20260906091527 57 155 0.0 0.0 0.00 0.01 0.00 87 1014.3
20260906090026 57 155 0.0 0.0 0.00 0.01 0.00 87 1014.3
20260906084524 57 150 0.0 0.9 0.00 0.01 0.00 87 1014.2
20260906083023 57 120 0.0 0.0 0.00 0.01 0.00 87 1014.2
20260906081523 57 120 0.0 0.0 0.00 0.01 0.00 86 1014.2
20260906080024 57 120 0.0 0.0 0.00 0.01 0.00 86 1014.2
20260906074520 57 129 0.0 0.0 0.00 0.01 0.00 86 1014.3
20260906073007 57 129 0.0 0.0 0.00 0.01 0.00 86 1014.4
20260906071510 57 129 0.0 0.0 0.00 0.01 0.00 86 1014.4
20260906070006 57 129 0.0 0.0 0.00 0.01 0.00 87 1014.4
20260906064506 57 129 0.0 0.0 0.00 0.01 0.00 87 1014.5
20260906063005 57 129 0.0 0.0 0.00 0.01 0.00 86 1014.5
20260906061504 57 129 0.0 0.0 0.00 0.01 0.00 87 1014.4
20260906060004 57 129 0.0 0.0 0.00 0.01 0.00 86 1014.6
20260906054501 57 129 0.0 0.0 0.00 0.01 0.00 85 1014.6
20260906053101 57 129 0.0 0.9 0.00 0.01 0.00 85 1014.6
20260906051546 58 142 0.0 0.0 0.00 0.01 0.00 84 1014.7
20260906050044 58 167 0.0 0.0 0.00 0.01 0.00 83 1014.7
20260906044542 59 141 0.0 0.9 0.00 0.01 0.00 81 1014.8
20260906043040 59 136 0.0 0.0 0.00 0.01 0.00 79 1014.9
20260906041538 60 136 0.0 0.0 0.00 0.01 0.00 77 1015.0
20260906040037 60 123 0.0 0.0 0.00 0.01 0.00 75 1015.0
20260906034551 61 123 0.0 0.0 0.00 0.01 0.00 73 1014.9
20260906033035 61 123 0.0 0.0 0.00 0.01 0.00 73 1014.7
20260906031621 61 123 0.0 0.0 0.00 0.01 0.00 72 1014.6
20260906030018 61 156 0.0 0.0 0.00 0.01 0.00 73 1014.5
20260906024517 62 156 0.0 0.0 0.00 0.01 0.00 72 1014.6
20260906023015 62 156 0.0 0.0 0.00 0.01 0.00 70 1014.5
20260906021512 63 156 0.0 0.0 0.00 0.02 0.00 68 1014.6
20260906020009 64 156 0.0 0.0 0.00 0.02 0.00 65 1014.6
20260906014507 65 156 0.0 0.0 0.00 0.02 0.00 64 1014.7
20260906013002 66 156 0.0 0.0 0.00 0.02 0.00 63 1014.8
20260906011552 67 156 0.0 0.0 0.00 0.04 0.00 58 1014.7
20260906010123 67 156 0.0 0.0 0.00 0.04 0.00 62 1014.6
20260906004608 68 156 0.0 0.0 0.00 0.04 0.00 60 1014.7
20260906003049 68 156 0.0 0.0 0.00 0.04 0.00 58 1014.8
20260906001600 69 158 0.0 0.9 0.00 0.11 0.00 55 1014.8
20260906000047 69 290 0.0 0.9 0.00 0.11 0.00 58 1014.7
20260905234545 68 300 0.0 0.9 0.00 0.11 0.00 59 1014.7
20260905233044 67 127 0.0 0.9 0.00 0.11 0.00 57 1014.8
20260905231531 67 127 0.0 0.9 0.00 0.14 0.00 59 1014.9
20260905230034 67 172 0.0 1.7 0.00 0.14 0.00 61 1015.0
20260905224530 68 151 0.0 0.9 0.00 0.14 0.00 63 1015.1